TimeCDT,TemperatureF,Dew PointF,Humidity,Sea Level PressureIn,VisibilityMPH,Wind Direction,Wind SpeedMPH,Gust SpeedMPH,PrecipitationIn,Events,Conditions,WindDirDegrees,DateUTC
12:15 AM,80.8,76.1,86,29.94,7.0,SSE,6.9,-,N/A,Rain,Light Rain,150,2013-06-14 05:15:00
12:35 AM,80.6,76.1,86,29.93,7.0,SSE,5.8,-,0.01,Rain,Light Rain,150,2013-06-14 05:35:00
12:55 AM,80.6,76.3,87,29.93,7.0,SSE,8.1,-,0.01,Rain,Light Rain,160,2013-06-14 05:55:00
1:15 AM,80.8,76.5,87,29.93,7.0,SSE,5.8,-,N/A,,Clear,160,2013-06-14 06:15:00
1:35 AM,81.0,76.6,87,29.92,7.0,SSE,6.9,-,N/A,Rain,Light Rain,150,2013-06-14 06:35:00
1:55 AM,81.0,76.6,87,29.90,7.0,SE,9.2,-,N/A,Rain,Light Rain,140,2013-06-14 06:55:00
2:15 AM,80.8,76.8,88,29.90,7.0,SE,8.1,-,0.01,Rain,Light Rain,140,2013-06-14 07:15:00
2:35 AM,80.8,77.0,88,29.89,7.0,SE,9.2,-,0.01,Rain,Light Rain,140,2013-06-14 07:35:00
2:55 AM,80.8,77.0,88,29.88,7.0,SE,10.4,-,0.02,Rain,Light Rain,130,2013-06-14 07:55:00
3:15 AM,80.8,77.0,88,29.87,7.0,SE,11.5,-,N/A,Rain,Light Rain,130,2013-06-14 08:15:00
3:35 AM,80.8,77.2,89,29.88,7.0,SE,12.7,18.4,0.01,Rain,Light Rain,140,2013-06-14 08:35:00
3:55 AM,81.0,77.2,88,29.89,7.0,SSE,8.1,-,0.01,Rain,Rain,150,2013-06-14 08:55:00
4:15 AM,81.1,77.4,88,29.89,7.0,SE,6.9,-,N/A,,Light Drizzle,140,2013-06-14 09:15:00
4:35 AM,81.1,77.5,89,29.89,7.0,SSE,9.2,-,N/A,,Overcast,150,2013-06-14 09:35:00
4:55 AM,81.1,77.4,88,29.89,7.0,SSE,6.9,-,N/A,,Overcast,160,2013-06-14 09:55:00
5:15 AM,81.3,77.5,88,29.89,7.0,SE,6.9,-,N/A,,Overcast,140,2013-06-14 10:15:00
5:35 AM,81.3,77.4,88,29.90,7.0,SE,5.8,-,N/A,,Mostly Cloudy,140,2013-06-14 10:35:00
5:55 AM,81.1,77.4,88,29.90,7.0,SE,5.8,-,N/A,,Mostly Cloudy,130,2013-06-14 10:55:00
6:15 AM,81.5,77.5,88,29.90,7.0,ESE,6.9,-,N/A,,Mostly Cloudy,120,2013-06-14 11:15:00
6:35 AM,81.5,77.5,88,29.90,7.0,ESE,8.1,-,N/A,,Mostly Cloudy,120,2013-06-14 11:35:00
6:55 AM,81.5,77.9,89,29.91,5.0,ESE,5.8,-,N/A,,Overcast,120,2013-06-14 11:55:00
7:15 AM,81.5,77.9,89,29.91,4.0,ESE,5.8,-,N/A,,Overcast,120,2013-06-14 12:15:00
7:35 AM,81.9,78.1,88,29.92,3.0,ESE,8.1,-,0.09,,Overcast,120,2013-06-14 12:35:00
7:55 AM,82.0,77.9,87,29.93,3.0,ESE,6.9,-,0.09,,Overcast,110,2013-06-14 12:55:00
8:15 AM,82.4,78.1,87,29.93,4.0,ESE,8.1,-,N/A,,Overcast,120,2013-06-14 13:15:00
8:35 AM,82.8,78.3,86,29.94,3.0,ESE,10.4,-,N/A,,Haze,120,2013-06-14 13:35:00
8:55 AM,83.3,78.1,84,29.94,4.0,SE,11.5,17.3,N/A,,Haze,130,2013-06-14 13:55:00
9:15 AM,84.4,78.1,81,29.94,4.0,SE,10.4,-,N/A,,Haze,130,2013-06-14 14:15:00
9:35 AM,85.6,77.9,78,29.95,5.0,SSE,10.4,-,N/A,,Haze,150,2013-06-14 14:35:00
9:55 AM,86.7,77.0,73,29.94,5.0,SE,13.8,-,N/A,,Haze,140,2013-06-14 14:55:00
10:15 AM,87.6,76.6,70,29.94,5.0,SE,16.1,-,N/A,,Haze,140,2013-06-14 15:15:00
10:35 AM,88.5,76.1,67,29.93,7.0,SE,13.8,-,N/A,,Mostly Cloudy,140,2013-06-14 15:35:00
10:55 AM,89.6,75.2,62,29.93,7.0,SE,16.1,21.9,N/A,,Mostly Cloudy,140,2013-06-14 15:55:00
11:15 AM,89.6,74.3,61,29.93,5.0,SE,16.1,21.9,N/A,,Haze,130,2013-06-14 16:15:00
11:35 AM,90.1,74.7,60,29.93,7.0,SE,15.0,21.9,N/A,,Mostly Cloudy,140,2013-06-14 16:35:00
11:55 AM,89.8,74.5,61,29.92,5.0,SE,15.0,-,N/A,,Haze,130,2013-06-14 16:55:00
12:15 PM,91.6,74.7,58,29.91,7.0,SSE,16.1,-,N/A,,Mostly Cloudy,160,2013-06-14 17:15:00
12:35 PM,93.0,73.0,52,29.91,7.0,SSE,16.1,23.0,N/A,,Scattered Clouds,150,2013-06-14 17:35:00
12:55 PM,91.8,73.2,54,29.91,7.0,South,15.0,-,N/A,,Scattered Clouds,170,2013-06-14 17:55:00
1:55 PM,90.3,75.7,62,29.89,5.0,SE,12.7,-,0.22,,Haze,140,2013-06-14 18:55:00
2:15 PM,90.1,73.2,57,29.88,7.0,SE,16.1,23.0,N/A,,Clear,140,2013-06-14 19:15:00
2:35 PM,90.7,72.5,55,29.87,7.0,SSE,18.4,21.9,N/A,,Clear,150,2013-06-14 19:35:00
2:55 PM,90.9,72.0,54,29.86,7.0,SE,17.3,21.9,N/A,,Clear,140,2013-06-14 19:55:00
3:15 PM,91.2,71.2,52,29.86,7.0,SSE,13.8,23.0,N/A,,Clear,150,2013-06-14 20:15:00
3:35 PM,93.6,72.3,50,29.85,7.0,SE,13.8,25.3,N/A,,Clear,130,2013-06-14 20:35:00
3:55 PM,93.2,71.6,49,29.85,7.0,SSE,17.3,-,N/A,,Clear,160,2013-06-14 20:55:00
4:15 PM,94.1,70.2,46,29.85,7.0,SSE,19.6,23.0,N/A,,Clear,150,2013-06-14 21:15:00
4:35 PM,92.1,71.6,51,29.85,7.0,SSE,12.7,18.4,N/A,,Clear,150,2013-06-14 21:35:00
4:55 PM,91.4,69.4,48,29.85,7.0,SSE,13.8,-,N/A,,Clear,150,2013-06-14 21:55:00
5:15 PM,90.5,68.9,49,29.85,7.0,SSE,11.5,-,N/A,,Clear,150,2013-06-14 22:15:00
5:35 PM,90.0,69.1,50,29.85,7.0,SE,10.4,-,N/A,,Clear,140,2013-06-14 22:35:00
5:55 PM,78.6,69.1,72,29.84,7.0,SE,12.7,-,N/A,,Clear,130,2013-06-14 22:55:00
6:15 PM,90.0,68.7,49,29.84,7.0,SE,12.7,-,N/A,,Clear,130,2013-06-14 23:15:00
6:35 PM,89.8,68.5,49,29.84,7.0,ESE,15.0,-,N/A,,Clear,120,2013-06-14 23:35:00
6:55 PM,89.8,68.5,49,29.84,7.0,SE,13.8,-,N/A,,Clear,130,2013-06-14 23:55:00
7:15 PM,88.9,70.0,53,29.85,7.0,ESE,10.4,-,N/A,,Clear,120,2013-06-15 00:15:00
7:35 PM,88.3,69.8,54,29.85,7.0,ESE,13.8,-,N/A,,Clear,120,2013-06-15 00:35:00
7:55 PM,88.0,69.8,55,29.85,7.0,ESE,12.7,-,N/A,,Clear,120,2013-06-15 00:55:00
8:15 PM,87.1,70.2,57,29.86,7.0,SE,11.5,-,N/A,,Clear,130,2013-06-15 01:15:00
8:35 PM,86.5,70.0,58,29.85,7.0,ESE,13.8,-,N/A,,Clear,120,2013-06-15 01:35:00
8:55 PM,85.5,71.1,62,29.86,7.0,ESE,11.5,-,N/A,,Clear,110,2013-06-15 01:55:00
9:15 PM,85.1,72.7,66,29.87,7.0,ESE,12.7,-,N/A,,Clear,120,2013-06-15 02:15:00
9:35 PM,84.6,73.2,69,29.88,7.0,ESE,11.5,-,N/A,,Clear,110,2013-06-15 02:35:00
9:55 PM,83.7,73.6,72,29.89,7.0,ESE,11.5,-,N/A,,Clear,120,2013-06-15 02:55:00
10:15 PM,83.3,73.8,73,29.90,7.0,ESE,11.5,-,N/A,,Clear,110,2013-06-15 03:15:00
10:35 PM,82.8,73.9,75,29.90,7.0,ESE,12.7,-,N/A,,Clear,120,2013-06-15 03:35:00
10:55 PM,82.2,74.3,77,29.92,7.0,ESE,9.2,-,N/A,,Clear,120,2013-06-15 03:55:00
11:15 PM,81.7,74.5,79,29.92,7.0,ESE,8.1,-,N/A,,Clear,120,2013-06-15 04:15:00
11:35 PM,81.5,74.5,79,29.93,7.0,SE,9.2,-,N/A,,Clear,130,2013-06-15 04:35:00
11:55 PM,81.0,74.8,82,29.93,7.0,SE,8.1,-,N/A,,Clear,130,2013-06-15 04:55:00